Home > Weather > Lódz > Past weeks

Flag for Poland Weather for the Past 2 Weeks in Lódz, Poland

Now
49 °F

Overcast.


Feels Like: 46 °F
Forecast: 42 / 49 °F
Wind: 6 mph from South

Location: Lodz

Current Time: Feb 8, 2016 at 7:01:25 PM

Latest Report: Feb 8, 2016 at 6:00 PM


Visibility: 13 mi

Pressure: 29.60 "Hg

Humidity: 66%

Dew point: 38 °F

Location of LódzLocation

Historic Weather in Lódz — Graph

°F

Lódz Temperature Yesterday

Maximum temperature yesterday: 51 °F (at 2:00 PM)
Minimum temperature yesterday: 34 °F (at 6:00 AM)
Average temperature yesterday: 43 °F

High & Low Weather Summary for the Past Weeks

 TemperatureHumidityPressure
High54 °F (Feb 2, 1:00 PM)100% (Jan 26, 5:00 AM)30.43 "Hg (Jan 26, 5:00 AM)
Low30 °F (Jan 29, 1:00 AM)51% (Feb 7, 2:00 PM)29.61 "Hg (Jan 31, 3:00 AM)
Average40 °F80%30.02 "Hg
* Reported Jan 24 5:00 PM — Feb 8 5:00 PM, Lódz, Weather by CustomWeather, © 2016

Note: Actual official high and low records may vary slightly from our data, if they occured in-between our weather recording intervals... More about our weather records

Advertising

Lódz Weather History for the Previous 24 Hours

 ConditionsComfort  
Time TempWeatherWind HumidityBarometerVisibility
5:00 PM
Mon, Feb 8
49 °FOvercast.6 mph60%29.62 "Hg12 mi
4:00 PM51 °FOvercast.7 mph51%29.62 "Hg12 mi
3:00 PM51 °FPartly sunny.6 mph54%29.64 "Hg12 mi
2:00 PM52 °FPartly sunny.7 mph53%29.67 "Hg12 mi
1:00 PM50 °FPartly sunny.7 mph56%29.70 "Hg12 mi
12:00 PM49 °FPartly sunny.7 mph58%29.73 "Hg12 mi
11:00 AM46 °FPartly sunny.5 mph65%29.77 "Hg12 mi
10:00 AM45 °FPartly sunny.5 mph72%29.80 "Hg12 mi
9:00 AM44 °FOvercast.5 mph78%29.80 "Hg12 mi
8:00 AM43 °FLight rain. Overcast.3 mph81%29.80 "Hg12 mi
7:00 AM43 °FOvercast.3 mph79%29.81 "Hg12 mi
6:00 AM43 °FOvercast.3 mph76%29.81 "Hg12 mi
5:00 AM43 °FOvercast.5 mph75%29.81 "Hg12 mi
3:00 AM43 °FOvercast.3 mph73%29.80 "Hg12 mi
2:00 AM43 °FOvercast.3 mph71%29.79 "Hg12 mi
12:00 AM43 °FPassing clouds.3 mph73%29.77 "Hg12 mi
11:00 PM
Sun, Feb 7
42 °FPassing clouds.3 mph74%29.77 "Hg9 mi
10:00 PM43 °FPassing clouds.3 mph71%29.77 "Hg12 mi
9:00 PM43 °FPassing clouds.2 mph69%29.76 "Hg11 mi
8:00 PM43 °FPassing clouds.2 mph67%29.76 "Hg11 mi
7:00 PM44 °FPassing clouds.3 mph64%29.76 "Hg11 mi
Weather by CustomWeather, © 2016

See weather overviewHow to use our weather pages